When you browse on this site, cookies collect data to enhance your experience and personalize the content and advertising you see.
Visit our Privacy Policy to learn more. By continuing to use the site, you agree to this use of cookies and data.
  • In Romania
  • List of Countries
  • For 7 days
  • Water Temperature
  • Weather Map
  • Weather Widgets
  • user-avatar
    Login

    Hourly Weather Islamabad

    Today, 25 May, Monday

    Time Temperature Precipitation Wind Pressure Humidity
    00:00 +32°C° 0 mm 2 mps 710 mmHg 30%
    01:00 +31°C° 0 mm 2 mps 710 mmHg 31%
    02:00 +30°C° 0 mm 2 mps 709 mmHg 32%
    03:00 +30°C° 0 mm 2 mps 709 mmHg 32%
    04:00 +30°C° 0 mm 2 mps 709 mmHg 32%
    05:00 +29°C° 0 mm 2 mps 709 mmHg 32%
    06:00 +31°C° 0 mm 1 mps 709 mmHg 29%
    07:00 +33°C° 0 mm 1 mps 710 mmHg 26%
    08:00 +35°C° 0 mm 1 mps 710 mmHg 23%
    09:00 +38°C° 0 mm 2 mps 710 mmHg 20%
    10:00 +39°C° 0 mm 3 mps 711 mmHg 18%
    11:00 +42°C° 0 mm 3 mps 711 mmHg 16%
    12:00 +43°C° 0 mm 4 mps 711 mmHg 15%
    13:00 +43°C° 0 mm 5 mps 710 mmHg 13%
    14:00 +45°C° 0 mm 5 mps 710 mmHg 12%
    15:00 +43°C° 0 mm 5 mps 710 mmHg 12%
    16:00 +43°C° 0 mm 5 mps 709 mmHg 12%
    17:00 +43°C° 0 mm 5 mps 709 mmHg 12%
    18:00 +40°C° 0 mm 4 mps 709 mmHg 19%
    19:00 +36°C° 0 mm 4 mps 709 mmHg 25%
    20:00 +33°C° 0 mm 3 mps 708 mmHg 31%
    21:00 +33°C° 0 mm 3 mps 708 mmHg 31%
    22:00 +31°C° 0 mm 3 mps 708 mmHg 30%
    23:00 +31°C° 0 mm 2 mps 708 mmHg 30%

    Tomorrow, 26 May, Tuesday

    Time Temperature Precipitation Wind Pressure Humidity
    00:00 +31°C° 0 mm 2 mps 708 mmHg 30%
    01:00 +30°C° 0 mm 2 mps 708 mmHg 29%
    02:00 +30°C° 0 mm 2 mps 707 mmHg 29%
    03:00 +30°C° 0 mm 2 mps 707 mmHg 29%
    04:00 +29°C° 0 mm 2 mps 707 mmHg 30%
    05:00 +29°C° 0 mm 2 mps 707 mmHg 30%
    06:00 +31°C° 0 mm 2 mps 708 mmHg 27%
    07:00 +34°C° 0 mm 2 mps 708 mmHg 24%
    08:00 +35°C° 0 mm 1 mps 709 mmHg 21%
    09:00 +38°C° 0 mm 2 mps 709 mmHg 19%
    10:00 +40°C° 0 mm 2 mps 709 mmHg 17%
    11:00 +42°C° 0 mm 2 mps 709 mmHg 15%
    12:00 +44°C° 0 mm 3 mps 709 mmHg 13%
    13:00 +45°C° 0 mm 4 mps 709 mmHg 11%
    14:00 +45°C° 0 mm 4 mps 708 mmHg 10%
    15:00 +46°C° 0 mm 5 mps 708 mmHg 9%
    16:00 +46°C° 0 mm 5 mps 708 mmHg 9%
    17:00 +45°C° 0 mm 5 mps 708 mmHg 9%
    18:00 +42°C° 0 mm 4 mps 708 mmHg 11%
    19:00 +39°C° 0 mm 3 mps 708 mmHg 13%
    20:00 +37°C° 0 mm 2 mps 708 mmHg 14%
    21:00 +36°C° 0 mm 2 mps 707 mmHg 17%
    22:00 +35°C° 0 mm 3 mps 707 mmHg 19%
    23:00 +34°C° 0 mm 3 mps 707 mmHg 22%

    Day after tomorrow, 27 May, Wednesday

    Time Temperature Precipitation Wind Pressure Humidity
    00:00 +32°C° 0 mm 2 mps 707 mmHg 22%
    01:00 +32°C° 0 mm 2 mps 706 mmHg 23%
    02:00 +31°C° 0 mm 2 mps 706 mmHg 24%
    03:00 +31°C° 0 mm 2 mps 706 mmHg 24%
    04:00 +30°C° 0 mm 2 mps 706 mmHg 25%
    05:00 +30°C° 0 mm 1 mps 705 mmHg 25%
    06:00 +32°C° 0 mm 1 mps 706 mmHg 22%
    07:00 +35°C° 0 mm 2 mps 706 mmHg 20%
    08:00 +37°C° 0 mm 2 mps 707 mmHg 17%
    09:00 +39°C° 0 mm 2 mps 707 mmHg 15%
    10:00 +41°C° 0 mm 2 mps 707 mmHg 14%
    11:00 +44°C° 0 mm 3 mps 707 mmHg 12%
    12:00 +44°C° 0 mm 4 mps 707 mmHg 11%
    13:00 +45°C° 0 mm 4 mps 707 mmHg 10%
    14:00 +47°C° 0 mm 5 mps 707 mmHg 8%
    15:00 +47°C° 0 mm 5 mps 707 mmHg 8%
    16:00 +46°C° 0 mm 5 mps 707 mmHg 8%
    17:00 +46°C° 0 mm 5 mps 706 mmHg 7%
    18:00 +43°C° 0 mm 4 mps 706 mmHg 11%
    19:00 +40°C° 0 mm 4 mps 706 mmHg 14%
    20:00 +37°C° 0 mm 4 mps 706 mmHg 17%
    21:00 +35°C° 0 mm 4 mps 706 mmHg 19%
    22:00 +34°C° 0 mm 4 mps 706 mmHg 21%
    23:00 +33°C° 0 mm 4 mps 706 mmHg 24%

    28 May, Thursday

    Time Temperature Precipitation Wind Pressure Humidity
    00:00 +33°C° 0 mm 4 mps 705 mmHg 24%
    01:00 +31°C° 0 mm 3 mps 705 mmHg 25%
    02:00 +31°C° 0 mm 3 mps 705 mmHg 26%
    03:00 +30°C° 0 mm 3 mps 704 mmHg 26%
    04:00 +30°C° 0 mm 3 mps 704 mmHg 27%
    05:00 +29°C° 0 mm 2 mps 704 mmHg 28%
    06:00 +31°C° 0 mm 2 mps 705 mmHg 25%
    07:00 +35°C° 0 mm 2 mps 705 mmHg 23%
    08:00 +36°C° 0 mm 1 mps 706 mmHg 20%
    09:00 +39°C° 0 mm 1 mps 706 mmHg 18%
    10:00 +40°C° 0 mm 2 mps 706 mmHg 16%
    11:00 +42°C° 0 mm 2 mps 707 mmHg 13%
    12:00 +43°C° 0 mm 2 mps 706 mmHg 12%
    13:00 +45°C° 0 mm 2 mps 706 mmHg 10%
    14:00 +46°C° 0 mm 3 mps 706 mmHg 8%
    15:00 +45°C° 0 mm 3 mps 706 mmHg 8%
    16:00 +45°C° 0 mm 3 mps 706 mmHg 9%
    17:00 +45°C° 0 mm 4 mps 705 mmHg 9%
    18:00 +43°C° 0 mm 3 mps 706 mmHg 10%
    19:00 +40°C° 0 mm 3 mps 706 mmHg 12%
    20:00 +38°C° 0 mm 3 mps 706 mmHg 14%
    21:00 +36°C° 0 mm 3 mps 706 mmHg 18%
    22:00 +35°C° 0 mm 3 mps 706 mmHg 22%
    23:00 +33°C° 0 mm 4 mps 707 mmHg 25%

    29 May, Friday

    Time Temperature Precipitation Wind Pressure Humidity
    00:00 +33°C° 0 mm 3 mps 706 mmHg 26%
    01:00 +31°C° 0 mm 3 mps 706 mmHg 27%
    02:00 +30°C° 0 mm 3 mps 706 mmHg 28%
    03:00 +30°C° 0 mm 3 mps 706 mmHg 28%
    04:00 +30°C° 0 mm 2 mps 706 mmHg 28%
    05:00 +29°C° 0 mm 2 mps 706 mmHg 28%
    06:00 +31°C° 0 mm 2 mps 707 mmHg 26%
    07:00 +34°C° 0 mm 2 mps 708 mmHg 23%
    08:00 +36°C° 0 mm 2 mps 708 mmHg 21%
    09:00 +38°C° 0 mm 3 mps 709 mmHg 19%
    10:00 +41°C° 0 mm 4 mps 709 mmHg 17%
    11:00 +42°C° 0 mm 5 mps 709 mmHg 16%
    12:00 +43°C° 0 mm 5 mps 709 mmHg 15%
    13:00 +43°C° 0 mm 5 mps 709 mmHg 15%
    14:00 +45°C° 0 mm 5 mps 709 mmHg 15%
    15:00 +42°C° 0 mm 4 mps 708 mmHg 18%
    16:00 +41°C° 0 mm 4 mps 708 mmHg 20%
    17:00 +40°C° 0 mm 4 mps 707 mmHg 23%
    18:00 +36°C° 0 mm 5 mps 707 mmHg 28%
    19:00 +34°C° 0 mm 7 mps 708 mmHg 32%
    20:00 +32°C° 0 mm 8 mps 708 mmHg 37%
    21:00 +30°C° 0.3 mm 7 mps 708 mmHg 37%
    22:00 +30°C° 0.3 mm 5 mps 709 mmHg 38%
    23:00 +30°C° 0.3 mm 3 mps 709 mmHg 38%

    30 May, Saturday

    Time Temperature Precipitation Wind Pressure Humidity
    00:00 +29°C° 0.1 mm 3 mps 709 mmHg 39%
    01:00 +29°C° 0.1 mm 2 mps 709 mmHg 40%
    02:00 +29°C° 0.1 mm 2 mps 709 mmHg 41%
    03:00 +28°C° 0 mm 2 mps 709 mmHg 41%
    04:00 +28°C° 0 mm 2 mps 709 mmHg 41%
    05:00 +28°C° 0 mm 2 mps 709 mmHg 41%
    06:00 +29°C° 0.3 mm 2 mps 710 mmHg 40%
    07:00 +30°C° 0.3 mm 2 mps 711 mmHg 38%
    08:00 +31°C° 0.3 mm 2 mps 711 mmHg 36%
    09:00 +33°C° 0 mm 3 mps 711 mmHg 33%
    10:00 +35°C° 0 mm 4 mps 712 mmHg 30%
    11:00 +36°C° 0 mm 5 mps 712 mmHg 27%
    12:00 +37°C° 0 mm 5 mps 712 mmHg 26%
    13:00 +39°C° 0 mm 6 mps 711 mmHg 26%
    14:00 +39°C° 0 mm 6 mps 711 mmHg 25%
    15:00 +39°C° 0 mm 6 mps 711 mmHg 25%
    16:00 +38°C° 0 mm 7 mps 710 mmHg 26%
    17:00 +38°C° 0 mm 7 mps 709 mmHg 27%
    18:00 +35°C° 0.1 mm 6 mps 710 mmHg 29%
    19:00 +34°C° 0.1 mm 5 mps 710 mmHg 31%
    20:00 +33°C° 0.1 mm 5 mps 710 mmHg 33%
    21:00 +32°C° 0.1 mm 4 mps 711 mmHg 37%
    22:00 +30°C° 0.1 mm 3 mps 711 mmHg 42%
    23:00 +29°C° 0.1 mm 3 mps 712 mmHg 46%
    Show more